EW7554 Weather Reports


Display with metric or nautical units.
time (UTC)temp
F
wind
direction
speed
MPH
gust
MPH
rain 1hr
in
rain 24hr
in
rain mn
in
humidity
%
barometer
mb
20200220121614 -8 225 1.0 3.0 0.00 0.00 0.00 82 1045.4
20200220120037 -7 224 1.0 3.0 0.00 0.00 0.00 81 1045.4
20200220114530 -7 224 1.0 4.0 0.00 0.00 0.00 81 1045.2
20200220113126 -7 226 2.0 4.0 0.00 0.00 0.00 80 1045.4
20200220111522 -7 231 1.0 3.0 0.00 0.00 0.00 80 1045.5
20200220110013 -6 232 0.0 3.0 0.00 0.00 0.00 80 1045.4
20200220104511 -6 242 0.0 3.0 0.00 0.00 0.00 80 1045.4
20200220103012 -6 244 0.0 3.0 0.00 0.00 0.00 79 1045.2
20200220101656 -5 244 0.0 3.0 0.00 0.00 0.00 80 1045.2
20200220100211 -5 243 1.0 3.0 0.00 0.00 0.00 80 1045.0
20200220094737 -5 228 0.0 3.0 0.00 0.00 0.00 79 1045.0
20200220093053 -5 232 1.0 4.0 0.00 0.00 0.00 79 1045.1
20200220091637 -5 230 2.0 3.0 0.00 0.00 0.00 79 1045.1
20200220090140 -4 254 1.0 3.0 0.00 0.00 0.00 78 1045.1
20200220084607 -4 260 0.0 3.0 0.00 0.00 0.00 78 1045.2
20200220083142 -4 288 1.0 2.0 0.00 0.00 0.00 77 1045.0
20200220081551 -3 288 0.0 1.0 0.00 0.00 0.00 76 1045.1
20200220080102 -3 288 0.0 3.0 0.00 0.00 0.00 76 1045.1
20200220074552 -2 288 1.0 3.0 0.00 0.00 0.00 76 1045.1
20200220073037 -2 291 0.0 2.0 0.00 0.00 0.00 75 1044.9
20200220071507 -1 291 0.0 3.0 0.00 0.00 0.00 74 1045.0
20200220070003 -1 277 1.0 4.0 0.00 0.00 0.00 74 1045.0
20200220064619 -1 284 1.0 3.0 0.00 0.00 0.00 73 1045.0
20200220063104 0 292 2.0 5.0 0.00 0.00 0.00 73 1044.9
20200220061606 0 292 2.0 7.0 0.00 0.00 0.00 72 1044.9
20200220060113 0 290 4.0 6.0 0.00 0.00 0.00 72 1044.9
20200220054557 0 321 4.0 7.0 0.00 0.00 0.00 71 1045.0
20200220053126 0 309 3.0 8.0 0.00 0.00 0.00 71 1045.0
20200220051534 0 289 3.0 8.0 0.00 0.00 0.00 70 1044.9
20200220050111 1 301 2.0 5.0 0.00 0.00 0.00 70 1044.9
20200220044532 1 327 5.0 8.0 0.00 0.00 0.00 70 1044.8
20200220043029 1 311 3.0 8.0 0.00 0.00 0.00 70 1044.7
20200220041524 2 292 3.0 7.0 0.00 0.00 0.00 69 1044.5
20200220040031 2 292 2.0 6.0 0.00 0.00 0.00 68 1044.4
20200220034509 3 287 1.0 4.0 0.00 0.00 0.00 67 1044.4
20200220033002 3 293 4.0 11.0 0.00 0.00 0.00 67 1044.2
20200220031633 4 311 6.0 13.0 0.00 0.00 0.00 66 1044.0
20200220030122 4 282 5.0 9.0 0.00 0.00 0.00 66 1043.8
20200220024708 4 298 2.0 9.0 0.00 0.00 0.00 65 1043.6
20200220023117 5 306 4.0 9.0 0.00 0.00 0.00 64 1043.4
20200220021653 5 294 2.0 5.0 0.00 0.00 0.00 64 1043.3
20200220020101 5 299 2.0 9.0 0.00 0.00 0.00 63 1043.3
20200220014538 6 290 4.0 9.0 0.00 0.00 0.00 62 1043.2
20200220013040 6 321 3.0 10.0 0.00 0.00 0.00 62 1043.1
20200220011526 6 278 2.0 5.0 0.00 0.00 0.00 63 1043.0
20200220010019 7 275 1.0 4.0 0.00 0.00 0.00 62 1042.8
20200220004618 7 277 1.0 4.0 0.00 0.00 0.00 61 1042.6
20200220003043 7 273 2.0 8.0 0.00 0.00 0.00 59 1042.6
20200220001506 8 290 4.0 8.0 0.00 0.00 0.00 58 1042.3
20200220000002 8 306 4.0 11.0 0.00 0.00 0.00 57 1042.2
20200219234658 9 298 4.0 8.0 0.00 0.00 0.00 56 1042.1
20200219233150 10 256 2.0 11.0 0.00 0.00 0.00 55 1042.0
20200219231642 11 256 5.0 12.0 0.00 0.00 0.00 53 1041.9
20200219230130 11 291 3.0 11.0 0.00 0.00 0.00 53 1042.0
20200219224619 12 271 5.0 12.0 0.00 0.00 0.00 51 1042.0
20200219223103 12 259 7.0 13.0 0.00 0.00 0.00 51 1042.0
20200219221611 14 298 3.0 9.0 0.00 0.00 0.00 50 1042.0
20200219220149 13 296 4.0 10.0 0.00 0.00 0.00 50 1042.1
20200219214602 13 314 3.0 10.0 0.00 0.00 0.00 48 1042.1
20200219213116 12 265 2.0 10.0 0.00 0.00 0.00 49 1042.0
20200219211549 13 304 5.0 12.0 0.00 0.00 0.00 49 1042.1
20200219210033 12 321 7.0 13.0 0.00 0.00 0.00 49 1042.2
20200219204540 12 281 7.0 12.0 0.00 0.00 0.00 49 1042.2
20200219203003 12 331 8.0 13.0 0.00 0.00 0.00 49 1042.3
20200219201653 12 329 6.0 13.0 0.00 0.00 0.00 49 1042.3
20200219200134 14 323 5.0 11.0 0.00 0.00 0.00 49 1042.4
20200219194636 13 306 4.0 9.0 0.00 0.00 0.00 50 1042.4
20200219193101 14 298 6.0 11.0 0.00 0.00 0.00 50 1042.5
20200219191557 13 217 2.0 11.0 0.00 0.00 0.00 51 1042.8
20200219190116 11 323 7.0 12.0 0.00 0.00 0.00 52 1042.8
20200219184613 12 325 4.0 10.0 0.00 0.00 0.00 53 1042.9
20200219183115 11 295 4.0 8.0 0.00 0.00 0.00 55 1043.0
20200219181558 11 285 3.0 11.0 0.00 0.00 0.00 56 1043.2
20200219180033 9 287 5.0 10.0 0.00 0.00 0.00 57 1043.4
20200219174526 9 306 5.0 11.0 0.00 0.00 0.00 58 1043.4
20200219173015 9 238 4.0 11.0 0.00 0.00 0.00 58 1043.3
20200219171508 8 309 5.0 13.0 0.00 0.00 0.00 60 1043.1
20200219170002 8 324 6.0 11.0 0.00 0.00 0.00 62 1043.1
20200219164618 7 293 3.0 8.0 0.00 0.00 0.00 64 1043.1
20200219163119 6 318 4.0 9.0 0.00 0.00 0.00 65 1043.2
20200219161625 5 276 3.0 10.0 0.00 0.00 0.00 69 1043.2
20200219160049 4 302 4.0 9.0 0.00 0.00 0.00 69 1043.0
20200219154625 4 298 5.0 10.0 0.00 0.00 0.00 71 1042.9
20200219153210 4 314 3.0 9.0 0.00 0.00 0.00 72 1042.9
20200219151556 3 284 5.0 9.0 0.00 0.00 0.00 73 1042.9
20200219150058 3 316 6.0 11.0 0.00 0.00 0.00 74 1042.8
20200219144530 3 288 0.0 7.0 0.00 0.00 0.00 77 1042.7
20200219143021 2 279 4.0 7.0 0.00 0.00 0.00 77 1042.4
20200219141516 2 254 0.0 4.0 0.00 0.00 0.00 77 1042.1
20200219140013 1 249 1.0 3.0 0.00 0.00 0.00 77 1041.9
20200219134504 1 236 1.0 4.0 0.00 0.00 0.00 77 1041.7
20200219133152 1 236 1.0 4.0 0.00 0.00 0.00 76 1041.6
20200219131704 1 236 0.0 3.0 0.00 0.00 0.00 75 1041.4
20200219130142 1 290 0.0 3.0 0.00 0.00 0.00 74 1041.1
20200219124616 2 304 1.0 5.0 0.00 0.00 0.00 73 1041.1
20200219123129 2 304 1.0 3.0 0.00 0.00 0.00 73 1040.9